User: anonymous   Login
Location: UBC Liquid-Mirror Observatory
(49.2876°N, 122.5728°W)
Time: 02:34:16
(UTC-08:00)
Language:

KITSAT 1 - Orbit

View from above orbital plane
View from above orbital plane
View from above satellite
View from above satellite

Ground track
Ground track

The orbit data is extracted from the following two-line orbital elements,

1 22077U 92052B   14331.06150590 -.00000023  00000-0  15769-3 0  7540
2 22077 066.0842 121.1089 0000332 051.8285 046.5774 12.86498044 47353
Epoch (UTC): 27 November 2014 01:28:34
Eccentricity: 0.0000332
inclination: 66.0842°
perigee height: 1315 km
apogee height: 1316 km
right ascension of ascending node: 121.1089°
argument of perigee: 51.8285°
revolutions per day: 12.86498044
mean anomaly at epoch: 46.5774°
orbit number at epoch: 4735

The dashed part of the orbit path shows where the satellite is in the earth's shadow,  

DLR